Probability
0 0 0 0 0 0 0 0 0 0 0 0 0 0 0 0 0 0 0 0 0 0 0 0 0 0 0 0 0 0 0 0 0 0 0 0 0 0 0 0 0 0 0
0 0 0 0 0 0 0 0 0 0 0 0 0 0 0 0 0 0 0 0 0 0 0 0 0 0 0 0 0 0 0 0 0 0 0 0 0 0 0 0 0 0 0
0 0 0 0 0 0 0 0 0 0 0 0 0 0 0 0 0 0 0 0 0 0 0 0 0 0 0 0 0 0 0 0 0 0 0 0 0 0 0 0 0 0 0
0 0 0 0 0 0 0 0 0 0 0 0 0 0 0 0 0 0 0 0 0 0 0 0 0 0 0 0 0 0 0 0 0 0 0 0 0 0 0 0 0 0 0
0 0 0 0 0 0 0 0 0 0 0 0 0 0 0 0 0 0 0 0 0 0 0 0 0 0 0 0 0 0 0 0 0 0 0 0 0 0 0 0 0 0 0
0 0 0 0 0 0 0 0 0 0 0 0 0 0 0 0 0 0 0 0 0 0 0 0 0 0 0 0 0 0 0 0 0 0 0 0 0 0 0 0 0 0 0
0 0 0 0 0 0 0 0 0 0 0 0 0 0 0 0 0 0 0 0 0 0 0 0 0 0 0 0 0 0 0 0 0 0 0 0 0 0 0 0 0 0 0
0 0 0 0 0 0 0 0 0 0 0 0 0 0 0 0 0 0 0 0 0 0 0 0 0 0 0 0 0 0 0 0 0 0 0 0 0 0 0 0 0 0 0
0 0 0 0 0 0 0 0 0 0 0 0 0 0 0 0 0 0 0 0 0 0 0 0 0 0 0 0 0 0 0 0 0 0 0 0 0 0 0 0 0 0 0
0 0 0 0 0 0 0 0 0 0 0 0 0 0 0 0 0 0 0 0 0 0 0 0 0 0 0 0 0 0 0 0 0 0 0 0 0 0 0 0 0 0 0
0 0 0 0 0 0 0 0 0 0 0 0 0 0 0 0 0 0 0 0 0 0 0 0 0 0 0 0 0 0 0 0 0 0 0 0 0 0 0 0 0 0 0
0 0 0 0 0 0 0 0 0 0 0 0 0 0 0 0 0 0 0 0 0 0 0 0 0 0 0 0 0 0 0 0 0 0 0 0 0 0 0 0 0 0 0
0 0 0 0 0 0 0 0 0 0 0 0 0 0 0 0 0 0 0 0 0 0 0 0 0 0 0 0 0 0 0 0 0 0 0 0 0 0 0 0 0 0 0
0 0 0 0 0 0 0 0 0 0 0 0 0 0 0 0 0 0 0 0 0 0 0 0 0 0 0 0 0 0 0 0 0 0 0 0 0 0 0 0 0 0 0
0 0 0 0 0 0 0 0 0 0 0 0 0 0 0 0 0 0 0 0 0 0 0 0 0 0 0 0 0 0 0 0 0 0 0 0 0 0 0 0 0 0 0
0 0 0 0 0 0 0 0 0 0 0 0 0 0 0 0 0 0 0 0 0 0 0 0 0 0 0 0 0 0 0 0 0 0 0 0 0 0 0 0 0 0 0
0 0 0 0 0 0 0 0 0 0 0 0 0 0 0 0 0 0 0 0 0 0 0 0 0 0 0 0 0 0 0 0 0 0 0 0 0 0 0 0 0 0 0
0 0 0 0 0 0 0 0 0 0 0 0 0 0 0 0 0 0 0 0 0 0 0 0 0 0 0 0 0 0 0 0 0 0 0 0 0 0 0 0 0 0 0
0 0 0 0 0 0 0 0 0 0 0 0 0 0 0 0 0 0 0 0 0 0 0 0 0 0 0 0 0 0 0 0 0 0 0 0 0 0 0 0 0 0 0
0 0 0 0 0 0 0 0 0 0 0 0 0 0 0 0 0 0 0 0 0 0 0 0 0 0 0 0 0 0 0 0 0 0 0 0 0 0 0 0 0 0 0
0 0 0 0 0 0 0 0 0 0 0 0 0 0 0 0 0 0 0 0 0 0 0 0 0 0 0 0 0 0 0 0 0 0 0 0 0 0 0 0 0 0 0
0 0 0 0 0 0 0 0 0 0 0 0 0 0 0 0 0 0 0 0 0 0 0 0 0 0 0 0 0 0 0 0 0 0 0 0 0 0 0 0 0 0 0
0 0 0 0 0 0 0 0 0 0 0 0 0 0 0 0 0 0 0 0 0 0 0 0 0 0 0 0 0 0 0 0 0 0 0 0 0 0 0 0 0 0 0
0 0 0 0 0 0 0 0 0 0 0 0 0 0 0 0 0 0 0 0 0 0 0 0 0 0 0 0 0 0 0 0 0 0 0 0 0 0 0 0 0 0 0
0 0 0 0 0 0 0 0 0 0 0 0 0 0 0 0 0 0 0 0 0 0 0 0 0 0 0 0 0 0 0 0 0 0 0 0 0 0 0 0 0 0 0
0 0 0 0 0 0 0 0 0 0 0 0 0 0 0 0 0 0 0 0 0 0 0 0 0 0 0 0 0 0 0 0 0 0 0 0 0 0 0 0 0 0 0
Wind_Speed
14 14 14 13 13 12 11 11 10 9 8 8 7 7 6 5 4 3 3 2 3 4 5 6 7 7 8 8 8 8 9 10 12 11 10 11 13 14 13 14 14 15 13
14 14 14 13 13 13 12 11 10 9 8 7 7 6 5 4 3 2 2 3 4 6 6 7 8 7 8 9 8 9 9 9 11 14 12 12 14 14 14 14 13 12 13
13 14 14 13 13 12 11 10 9 8 7 6 5 5 4 3 2 2 3 4 6 6 7 8 9 9 9 9 9 10 9 9 10 12 13 11 11 12 13 13 14 12 13
13 13 13 12 12 11 10 8 7 6 6 5 4 3 2 2 3 4 5 6 7 7 8 8 9 9 9 10 9 10 10 11 11 11 11 11 11 12 11 10 10 10 11
12 12 12 10 10 9 8 7 6 5 4 3 3 2 1 2 6 8 8 8 8 9 8 8 8 8 10 10 10 12 12 11 11 10 11 11 11 10 10 8 10 10 11
11 10 9 8 8 7 6 5 5 4 3 3 3 3 3 5 7 8 10 10 9 9 9 9 9 8 7 10 13 14 16 15 14 12 11 12 13 12 10 9 10 10 9
10 9 8 7 6 6 5 5 4 4 4 3 3 3 3 6 5 7 10 12 10 9 10 10 9 8 10 10 12 16 17 16 16 14 14 13 13 12 11 11 10 10 11
8 7 7 6 6 5 5 5 4 3 3 3 3 4 3 5 5 7 13 12 9 9 10 10 10 10 8 10 14 15 15 14 13 11 11 12 13 12 11 11 11 10 11
7 6 6 5 5 5 5 5 4 3 3 2 3 3 4 3 4 6 12 10 7 10 10 9 10 10 8 11 14 14 14 13 11 11 13 15 16 16 12 8 8 7 8
7 6 6 5 5 5 5 4 3 2 2 2 3 3 4 4 2 3 10 9 8 9 9 9 7 6 11 14 13 13 13 13 14 14 12 10 10 8 8 7 7 7 6
6 6 6 5 5 5 4 2 1 2 2 3 3 3 3 4 1 0 6 9 9 9 8 8 6 9 13 15 14 11 11 14 13 11 10 9 8 6 5 5 5 5 6
6 6 5 4 3 3 2 1 1 3 3 2 3 4 3 3 3 4 6 8 10 11 9 8 8 13 16 17 12 10 14 14 8 7 7 7 7 6 6 7 6 4 4
5 5 4 3 2 1 1 2 2 3 4 4 4 4 5 5 3 2 6 9 10 10 8 10 13 15 15 11 8 12 11 7 7 7 7 6 6 6 6 6 6 5 4
4 4 3 2 1 0 2 3 4 4 5 5 5 6 6 5 6 7 8 8 8 8 8 9 11 10 9 8 9 7 6 7 7 7 6 6 6 6 6 6 6 6 5
3 2 1 0 2 2 2 3 5 6 6 7 7 7 7 7 8 11 9 8 9 9 11 8 7 8 8 9 9 9 8 8 7 7 6 6 6 6 6 6 5 5 5
2 1 1 1 2 3 3 1 4 2 3 1 3 6 6 6 9 10 11 11 11 12 10 6 7 7 8 8 9 9 9 8 8 7 7 6 6 6 6 6 6 5 6
2 2 3 3 3 3 4 4 1 4 5 4 2 2 6 9 9 10 11 13 11 9 6 6 6 7 8 8 8 8 9 9 8 7 7 6 5 5 5 6 7 6 7
3 1 3 3 3 4 4 4 4 3 2 2 3 1 5 8 8 9 11 10 5 5 5 6 6 7 8 8 8 9 9 9 8 8 7 6 6 6 5 6 7 8 7
5 4 3 3 3 3 3 3 4 4 4 4 4 3 5 7 6 5 7 5 6 6 6 6 7 7 8 8 8 8 8 8 9 8 7 8 7 7 6 6 6 7 7
1 4 4 3 2 3 3 3 4 4 4 4 4 6 7 6 5 5 5 6 6 6 6 7 7 8 8 8 8 9 9 8 9 8 8 8 8 7 8 8 7 7 6
3 4 3 1 3 3 3 4 4 4 4 4 4 5 6 6 5 6 5 6 6 6 7 7 8 8 8 8 9 10 11 9 8 8 8 8 8 8 8 7 7 7 7
3 3 2 3 3 4 3 3 4 4 4 5 4 3 3 4 5 5 5 5 6 6 6 6 7 7 8 8 9 9 9 9 9 8 8 8 8 8 9 9 9 9 8
3 3 3 3 4 3 1 3 4 4 4 5 5 5 5 5 6 6 6 6 6 6 6 6 7 8 9 8 8 7 8 9 8 8 8 7 8 8 8 9 11 11 11
4 4 4 3 3 3 4 4 4 4 5 5 5 5 6 6 6 7 7 7 7 7 7 7 7 10 13 11 8 8 9 9 10 7 8 7 8 7 7 8 8 9 8
5 4 4 4 4 4 4 4 4 5 5 5 5 6 6 7 7 7 7 7 8 7 9 8 8 9 13 14 13 11 10 10 8 9 7 6 8 8 8 9 8 9 9
5 5 4 4 4 4 4 4 5 5 5 5 6 6 7 7 7 8 8 8 8 8 8 8 11 12 14 12 14 12 10 10 10 11 7 7 9 9 9 8 10 9 10
Wind_Direction
84 87 90 93 96 97 97 98 98 98 101 102 104 106 104 100 91 76 46 14 331 329 318 314 308 310 301 305 295 289 287 289 293 298 301 303 299 291 291 289 288 288 285
89 90 90 92 93 92 91 91 93 92 94 98 101 99 94 86 72 50 17 351 334 327 322 315 309 308 305 292 298 298 297 298 293 295 296 294 292 293 292 292 290 288 289
93 93 92 90 89 89 89 87 89 93 95 97 98 97 90 79 60 15 347 334 327 320 316 312 311 307 300 302 302 296 296 294 291 291 293 295 295 296 298 293 292 292 290
92 92 91 90 90 90 89 88 89 92 93 90 87 84 78 54 22 358 338 328 320 315 312 307 303 303 303 306 299 296 298 300 296 294 294 297 298 298 296 296 298 297 296
95 93 93 94 94 93 91 91 89 87 88 88 88 85 53 54 30 0 334 322 320 313 311 308 306 307 298 297 304 309 309 303 300 297 297 297 296 299 299 305 299 298 295
98 97 98 99 98 97 97 98 96 92 84 78 64 51 30 50 45 2 332 323 316 312 314 313 307 291 294 288 284 293 296 294 297 297 295 294 299 303 307 302 296 296 296
106 109 114 114 108 105 102 93 88 84 77 62 45 33 44 74 34 352 336 312 308 314 313 310 310 317 309 313 315 304 293 282 277 281 287 292 298 301 303 300 296 296 294
120 124 120 114 109 102 93 85 76 63 53 45 29 15 6 74 40 347 328 302 307 313 309 307 309 311 325 335 317 305 301 298 294 290 291 295 297 301 300 294 293 291 290
122 120 116 113 107 98 89 80 65 55 41 15 20 357 347 69 62 345 326 313 315 313 309 309 308 310 349 333 311 303 302 302 296 284 279 279 280 279 276 282 286 291 299
120 116 112 101 93 89 85 74 68 45 23 349 11 344 335 350 73 331 324 316 321 316 313 309 304 331 328 317 311 305 303 310 314 310 302 296 293 291 268 269 283 290 299
117 114 107 97 95 94 93 78 41 4 8 346 338 326 322 333 336 48 324 322 327 317 312 312 327 347 321 311 305 297 304 307 302 306 315 320 322 323 314 298 284 286 298
117 113 107 98 95 103 107 77 338 328 311 317 330 326 331 331 337 349 311 301 303 309 311 320 331 327 312 303 301 305 303 299 303 319 327 332 334 336 331 322 316 306 285
117 109 107 105 97 83 304 299 298 308 322 335 341 341 344 346 349 296 297 299 293 302 314 316 308 302 301 300 301 302 302 314 332 336 339 342 339 339 336 333 334 333 322
120 119 123 130 140 116 299 319 334 342 346 346 350 349 348 346 355 352 340 331 327 320 323 314 301 293 302 319 321 326 333 340 336 337 344 346 350 355 357 352 348 350 351
119 119 122 51 21 319 324 6 348 22 20 346 351 351 349 346 0 340 324 328 331 329 321 316 334 345 345 344 342 343 343 344 344 345 350 360 7 4 3 359 358 357 2
132 115 5 341 350 329 336 112 112 44 111 152 331 335 345 2 336 326 322 318 313 310 312 332 344 343 341 338 336 337 340 343 342 343 350 1 9 9 7 4 4 10 14
9 349 323 334 345 338 343 341 54 153 181 196 209 336 345 341 333 331 329 322 307 306 326 346 343 338 335 333 333 334 335 338 339 345 352 0 12 18 16 13 14 17 21
306 291 291 316 332 346 355 350 359 13 76 113 156 63 351 337 331 328 327 323 334 347 350 342 337 333 330 331 331 333 336 340 348 356 0 3 15 29 32 31 31 26 26
315 331 332 333 332 0 3 5 21 27 27 24 22 29 352 330 315 311 322 343 347 345 342 338 336 330 329 329 332 336 341 348 359 7 11 15 25 36 43 46 51 41 34
344 70 327 314 347 17 21 23 33 35 33 28 18 10 354 345 351 354 353 351 345 339 337 336 332 329 331 335 342 348 351 2 11 16 19 23 30 38 48 51 50 51 48
7 111 185 293 29 32 33 34 39 37 32 23 29 31 347 339 349 352 352 348 343 338 336 332 328 332 339 343 350 351 354 7 16 13 17 25 30 36 41 46 51 54 52
16 37 52 49 57 47 32 42 40 39 31 18 16 35 354 346 358 355 352 346 341 335 330 325 325 332 341 344 344 343 351 5 9 5 8 20 29 34 37 39 41 45 45
39 57 73 74 78 105 61 52 45 40 33 23 19 12 9 10 5 0 357 352 344 340 338 337 334 342 348 345 342 340 351 356 352 348 354 12 25 31 35 39 44 49 42
54 56 68 74 69 68 66 59 51 45 39 31 26 18 15 11 9 7 4 353 348 350 350 349 347 350 354 355 353 1 10 351 334 335 353 8 23 25 27 31 37 37 45
65 64 68 67 67 69 68 62 53 45 42 37 31 25 18 16 16 13 8 359 355 357 358 358 355 359 1 8 11 9 357 339 333 331 341 17 28 23 22 29 33 37 40
66 69 71 74 73 70 67 64 58 49 46 42 36 32 26 22 18 13 9 3 359 360 2 2 5 13 11 12 14 5 351 347 345 331 335 31 38 27 19 30 35 40 46